map of PSS home
PSS - Airport
Location
City:  Posadas, Argentina
ICAO:SARP
IATA:PSS

Details
Type:Airport (Aerodrome, Airfield)
Latitude:2723'09"S (-27.385838)
Longitude:5558'15"W (-55.970727)
Datum:WGS 1984
Elevation:430 ft (131 m)
Variation:14.34W (WMM2015 magnetic declination)
-0.17 annual change
Runways:1
Longest:7406 × 98 ft (2257 × 30 m), paved

Time
Time Zone:UTC-3
Local Time:

Weather
METAR:SARP 300100Z 11013KT CAVOK 21/12 Q1014
TAF:SARP 292300Z 3000/3024 14010KT CAVOK TX28/3020Z TN17/3009Z
BECMG 3006/3009 5000 -RA SCT020 BKN040 PROB40 3012/3015 -TSRA BKN040 FEW050CB
BECMG 3021/3023 07010KT 9999 SCT025 BKN090

Related Locations
Nearby:
Farthest:HYN: 12264 mi / 19737 km
Huangyan [Luqiao], 33, CN

Find:

   beyond  
but within

Other Information
Maps:
NOTAMs:
Links:
Sources:

  
flag of Argentina   

Sectional Chart

Flight Planning
at skyvector.com

Satellite Image

Google Maps Satellite view

 

Copyright © 2004-2016 Karl L. Swartz. All rights reserved.
The Great Circle Mapper name and logo are trademarks of the Great Circle Mapper.
All other trademarks mentioned herein belong to their respective owners.
Please see credits for attibutions and further copyright information.

  Follow gcmap on Facebook Follow gcmap on Twitter Follow gcmap on Google+ GCmap on LinkedIn

hCard Microformat

Geo Microformat